TimeEST,TemperatureF,Dew PointF,Humidity,Sea Level PressureIn,VisibilityMPH,Wind Direction,Wind SpeedMPH,Gust SpeedMPH,PrecipitationIn,Events,Conditions,WindDirDegrees,DateUTC
12:54 AM,8.6,8.6,100,-9999,0.0,West,56.4,61.0,N/A,Fog-Snow,Blowing Snow,280,2012-11-29 05:54:00
1:47 AM,6.8,6.8,100,-9999,0.0,WNW,55.2,64.4,N/A,Fog-Snow,Light Snow,290,2012-11-29 06:47:00
2:55 AM,5.0,5.0,100,-9999,0.0,West,62.1,70.2,N/A,Fog-Snow,Light Snow,280,2012-11-29 07:55:00
3:52 AM,3.2,3.2,100,-9999,0.0,WNW,61.0,66.7,N/A,Fog-Snow,Light Snow,300,2012-11-29 08:52:00
4:56 AM,1.4,1.4,100,-9999,0.0,WNW,62.1,76.0,N/A,Fog-Snow,Light Snow,290,2012-11-29 09:56:00
5:55 AM,1.4,1.4,100,-9999,0.0,WNW,56.4,70.2,N/A,Fog-Snow,Light Snow,290,2012-11-29 10:55:00
6:56 AM,-0.4,-0.4,100,-9999,0.0,WNW,65.6,73.6,N/A,Fog-Snow,Light Snow,290,2012-11-29 11:56:00
7:50 AM,-0.4,-0.4,100,-9999,0.0,WNW,64.4,76.0,N/A,Fog-Snow,Blowing Snow,300,2012-11-29 12:50:00
8:52 AM,-0.4,-0.4,100,-9999,0.1,WNW,57.5,65.6,N/A,Fog-Snow,Blowing Snow,300,2012-11-29 13:52:00
9:50 AM,1.4,1.4,100,-9999,0.1,WNW,61.0,-,N/A,Fog-Snow,Blowing Snow,290,2012-11-29 14:50:00
10:49 AM,3.2,3.2,100,-9999,0.1,WNW,58.7,66.7,N/A,Fog-Snow,Blowing Snow,290,2012-11-29 15:49:00
11:53 AM,5.0,5.0,100,-9999,0.1,West,65.6,79.4,N/A,Fog-Snow,Light Snow,280,2012-11-29 16:53:00
12:50 PM,6.8,6.8,100,-9999,0.1,West,65.6,74.8,N/A,Fog-Snow,Light Snow,280,2012-11-29 17:50:00
1:50 PM,8.6,8.6,100,-9999,0.0,West,61.0,67.9,N/A,Fog-Snow,Light Snow,280,2012-11-29 18:50:00
2:52 PM,8.6,8.6,100,-9999,0.0,West,62.1,-,N/A,Fog-Snow,Light Snow,280,2012-11-29 19:52:00
3:50 PM,10.4,10.4,100,-9999,0.0,West,69.0,72.5,N/A,Fog-Snow,Light Snow,280,2012-11-29 20:50:00
4:51 PM,10.4,10.4,100,-9999,0.0,West,59.8,66.7,N/A,Fog-Snow,Snow,280,2012-11-29 21:51:00
5:50 PM,10.4,10.4,100,-9999,0.0,West,57.5,63.3,N/A,Fog-Snow,Snow,280,2012-11-29 22:50:00
6:51 PM,10.4,10.4,100,-9999,0.0,WNW,61.0,66.7,N/A,Fog-Snow,Snow,290,2012-11-29 23:51:00
7:53 PM,6.8,6.8,100,-9999,0.0,WNW,48.3,56.4,N/A,Fog-Snow,Snow,300,2012-11-30 00:53:00
8:49 PM,5.0,5.0,100,-9999,0.0,WNW,56.4,62.1,N/A,Fog-Snow,Snow,300,2012-11-30 01:49:00
9:49 PM,3.2,3.2,100,-9999,0.0,WNW,62.1,69.0,N/A,Fog-Snow,Heavy Snow,300,2012-11-30 02:49:00
10:55 PM,1.4,1.4,100,-9999,0.0,WNW,61.0,71.3,N/A,Fog-Snow,Snow,300,2012-11-30 03:55:00